Kahului, HI

12:19 PM HST on December 18, 2017 (GMT -1000)
Kahului

Weather History for PHOG - October, 2012

Change the Weather History Date:

Wednesday, October 31, 2012

  Actual Average Record
Temperature  
Mean Temperature 75 °F 77 °F  
Max Temperature 84 °F 86 °F 92 °F (1972)
Min Temperature 66 °F 69 °F 60 °F (1950)
Degree Days  
Heating Degree Days 0 0  
Month to date heating degree days 0 0  
Since 1 July heating degree days 12 0  
Cooling Degree Days 10 12  
Month to date cooling degree days 400 408  
Year to date cooling degree days 3342 3376  
Growing Degree Days 24 (Base 50)    
Moisture  
Dew Point 67 °F    
Average Humidity 78    
Maximum Humidity 93    
Minimum Humidity 62    
Precipitation  
Precipitation 0.00 in 0.05 in 1.87 in (1951)
Month to date precipitation 0.01 1.20  
Year to date precipitation 4.71 12.28  
Snow  
Snow 0.00 in - - ()
Month to date snowfall 0.0  
Since 1 July snowfall 0.0  
Since 1 September snowfall 0.0  
Snow Depth 0.00 in    
Sea Level Pressure  
Sea Level Pressure 30.04 in    
Wind  
Wind Speed 11 mph (NE)    
Max Wind Speed 24 mph    
Max Gust Speed 29 mph    
Visibility 10 miles    
Events      
T = Trace of Precipitation, MM = Missing Value Source: NWS Daily Summary

Daily Weather History Graph

Daily Weather History Graph

Search for Another Location

Airport or City:

Trip Planner

Search our weather history database for the weather conditions in past years. The results will help you decide how hot, cold, wet, or windy it might be!

Date:

Astronomy

Oct. 31, 2012 Rise Set
Actual Time 6:28 AM HST 5:50 PM HST
Civil Twilight 6:05 AM HST 6:13 PM HST
Nautical Twilight 5:38 AM HST 6:39 PM HST
Astronomical Twilight 5:12 AM HST 7:05 PM HST
Moon 7:24 PM HST (10/31) 8:05 AM HST (10/31)
Length of Visible Light 12h 07m
Length of Day
11h 22m
Waning Gibbous, 96% of the Moon is Illuminated
Oct 31
Waning Gibbous
Nov 6
Last Quarter
Nov 13
New
Nov 20
First Quarter
Nov 28
Full

Hourly Weather History & Observations

Time (HST) Temp. Heat Index Dew Point Humidity Pressure Visibility Wind Dir Wind Speed Gust Speed Precip Events Conditions
12:54 AM 73.0 °F - 66.9 °F 81% 30.07 in 10.0 mi NE 5.8 mph - N/A   Clear
1:54 AM 72.0 °F - 66.9 °F 84% 30.05 in 10.0 mi NNE 8.1 mph - N/A   Clear
2:54 AM 71.1 °F - 66.9 °F 87% 30.04 in 10.0 mi East 5.8 mph - N/A   Clear
3:54 AM 69.1 °F - 66.0 °F 90% 30.04 in 10.0 mi Calm Calm - N/A   Clear
4:54 AM 68.0 °F - 64.9 °F 90% 30.03 in 10.0 mi Calm Calm - N/A   Clear
5:54 AM 66.9 °F - 64.9 °F 93% 30.04 in 10.0 mi Calm Calm - N/A   Clear
6:54 AM 68.0 °F - 64.9 °F 90% 30.06 in 10.0 mi ENE 4.6 mph - N/A   Clear
7:54 AM 75.9 °F - 66.9 °F 74% 30.07 in 10.0 mi ENE 6.9 mph - N/A   Partly Cloudy
8:54 AM 81.0 °F 83.0 °F 66.0 °F 60% 30.08 in 10.0 mi NE 12.7 mph - N/A   Partly Cloudy
9:54 AM 82.0 °F 84.9 °F 68.0 °F 62% 30.09 in 10.0 mi NE 18.4 mph - N/A   Partly Cloudy
10:54 AM 82.9 °F 87.0 °F 70.0 °F 65% 30.08 in 10.0 mi NNE 18.4 mph - N/A   Partly Cloudy
11:54 AM 82.9 °F 87.0 °F 70.0 °F 65% 30.06 in 10.0 mi NNE 19.6 mph - N/A   Partly Cloudy
12:54 PM 82.9 °F 86.5 °F 69.1 °F 63% 30.04 in 10.0 mi NNE 21.9 mph - N/A   Partly Cloudy
1:54 PM 82.9 °F 87.0 °F 70.0 °F 65% 30.01 in 10.0 mi NE 20.7 mph - N/A   Partly Cloudy
2:54 PM 82.0 °F 85.9 °F 70.0 °F 67% 30.00 in 10.0 mi NNE 23.0 mph - N/A   Clear
3:54 PM 81.0 °F 84.1 °F 69.1 °F 67% 30.00 in 10.0 mi NE 21.9 mph 28.8 mph N/A   Partly Cloudy
4:54 PM 79.0 °F - 68.0 °F 69% 30.01 in 10.0 mi NE 16.1 mph - N/A   Partly Cloudy
5:54 PM 75.9 °F - 66.9 °F 74% 30.01 in 10.0 mi NE 18.4 mph 25.3 mph N/A   Clear
6:54 PM 73.9 °F - 66.9 °F 79% 30.03 in 10.0 mi NE 18.4 mph - N/A   Partly Cloudy
7:54 PM 73.9 °F - 64.9 °F 73% 30.04 in 10.0 mi NE 15.0 mph 24.2 mph N/A   Partly Cloudy
8:54 PM 73.0 °F - 64.9 °F 76% 30.05 in 10.0 mi ENE 10.4 mph 19.6 mph N/A   Clear
9:54 PM 72.0 °F - 64.9 °F 78% 30.05 in 10.0 mi Calm Calm - 0.00 in   Partly Cloudy
10:54 PM 69.1 °F - 66.0 °F 90% 30.05 in 10.0 mi South 3.5 mph - N/A   Partly Cloudy
11:54 PM 66.9 °F - 64.9 °F 93% 30.05 in 10.0 mi SSE 8.1 mph - N/A   Clear